Temp_Advection
nan nan nan nan nan nan nan nan nan nan nan nan nan nan nan nan nan nan nan nan nan nan nan nan nan nan nan nan nan nan nan nan nan nan nan nan nan nan nan nan nan nan nan
nan 0 0 0 0 0 0 0 0 0 0 0 -0 -0 0 0 -0 0 -0 -0 0 0 0 0 -0 -0 -0 -0 -0 -0 -0 -0 -0 -0 0 0 -0 0 -0 -0 0 0 nan
nan 0 1 0 -0 0 0 0 0 1 0 0 0 -0 0 0 0 0 -0 -0 -0 0 0 0 0 -0 -0 -0 -0 -0 -0 -0 -1 -0 0 0 0 -0 -0 -0 -0 0 nan
nan 0 0 -0 0 0 0 0 0 0 0 0 0 0 0 0 0 0 -0 -0 0 -0 0 1 0 -0 -0 -0 -0 -0 -0 -0 -0 -0 -0 0 0 0 -0 -0 -0 -0 nan
nan 0 -0 -0 0 0 0 0 0 -0 0 0 0 0 0 0 0 -0 -0 0 0 0 0 -0 0 0 -0 -0 -0 -0 -0 -0 -1 -0 -0 0 0 0 0 -0 -0 -0 nan
nan -0 -0 0 0 0 0 0 0 -0 -0 0 0 0 0 0 -0 0 0 -0 0 0 1 0 0 0 0 0 -0 -0 -0 -0 -1 -0 0 0 0 -0 -0 -0 -0 -0 nan
nan 0 0 0 0 0 0 0 0 -0 0 0 0 0 0 0 -0 -0 1 -0 0 0 1 0 0 0 0 0 0 -0 -0 -0 -0 -0 0 0 0 -0 -0 -0 -0 -0 nan
nan 0 0 0 0 0 0 0 0 0 0 0 0 0 0 0 -0 -0 -0 0 0 -0 0 0 0 0 -0 0 0 -0 -0 -0 -0 -0 0 0 -0 -0 -0 -0 -0 -0 nan
nan 0 0 1 0 1 1 0 0 0 0 0 0 0 0 0 0 -0 -0 -0 0 0 0 0 0 0 -0 -0 -0 0 -0 -0 -0 -0 0 0 0 -0 -0 -0 -0 -0 nan
nan 1 0 1 0 1 1 0 0 0 0 0 0 0 -0 -0 0 -0 -0 -0 -0 0 0 0 0 0 0 -0 -0 -0 -0 -0 -0 -0 0 0 0 -0 -0 -0 -0 -0 nan
nan -1 1 -0 0 -0 0 0 0 0 0 0 0 -0 0 1 1 1 -0 -1 -1 0 0 0 0 0 0 0 -0 0 -0 -0 -0 0 -0 -0 -0 -0 -0 -0 -0 -0 nan
nan 3 -2 -0 -0 -1 -0 0 1 0 1 0 1 1 1 1 1 1 -1 -0 -0 0 0 0 0 0 0 0 0 0 -0 0 0 0 -0 -0 0 -0 -0 -0 -0 -0 nan
nan 2 -3 -0 -0 -0 -0 0 0 0 0 0 0 0 -0 -0 0 -0 0 0 0 0 0 0 0 0 0 0 0 0 0 0 0 0 -0 -0 0 0 -0 -0 -0 -0 nan
nan -1 -1 -0 0 0 -0 -0 -0 -0 -0 -0 -0 -0 0 -0 -0 0 1 1 1 0 0 0 0 0 -0 0 0 -0 0 -0 -0 -0 -0 -0 -0 0 -0 -0 -0 -0 nan
nan 1 0 -0 1 0 -0 -0 0 0 -0 -0 0 0 0 0 -0 -0 0 1 0 0 -0 0 -0 -0 0 0 -0 -0 -0 -0 -0 0 0 0 0 0 -0 -0 -0 -0 nan
nan 0 0 0 1 1 0 0 0 0 0 0 0 0 0 -0 0 -0 0 -0 -0 -0 -0 -0 0 -0 0 -0 -0 -0 -0 0 0 0 0 0 0 0 0 -0 -0 0 nan
nan -0 0 0 0 0 1 0 0 0 0 -0 0 -0 -0 -1 -1 -1 -0 -1 -0 -0 -0 0 0 -0 -0 -0 -0 -0 -0 -0 -0 -0 0 0 0 0 -0 -0 -0 -0 nan
nan 1 1 -0 -0 -0 0 0 0 0 -0 -0 -0 -0 -0 -1 -1 -0 -0 -0 0 0 0 0 0 -0 -0 -0 -0 -0 0 -0 -0 -0 0 0 0 0 0 0 -0 -0 nan
nan 2 1 -0 -0 -0 0 0 0 0 0 -0 -1 -1 -0 0 0 0 0 0 0 0 0 0 -0 -0 -0 -0 -0 0 0 -0 0 0 0 0 0 0 0 0 -0 -0 nan
nan 0 1 1 0 1 0 -0 0 0 -0 -1 -0 -0 -0 0 0 1 0 0 0 0 0 0 -0 -0 -0 0 0 0 -0 0 0 0 0 0 -0 -0 0 0 0 -0 nan
nan 0 -0 0 -0 0 -0 -0 -0 -0 -0 0 0 0 0 0 0 0 0 0 0 0 0 -0 -0 0 0 0 -0 -0 -0 0 0 0 0 0 -0 -0 -0 -0 0 0 nan
nan 1 0 0 1 1 0 0 -0 -0 0 0 0 0 0 0 0 0 0 0 0 -0 -0 0 0 0 -0 0 0 0 -0 -0 0 0 0 0 0 -0 -0 -0 0 0 nan
nan -0 0 0 1 0 0 0 0 0 0 -0 0 0 0 0 0 -0 0 0 0 0 0 0 -0 0 0 0 0 0 -0 0 0 0 0 -0 0 0 -0 -0 -0 0 nan
nan 0 0 0 0 -0 0 0 0 0 0 0 0 0 -0 0 0 -0 -0 0 0 0 0 -0 0 0 0 0 -0 0 0 0 -0 -0 0 0 -0 0 0 -0 -0 -0 nan
nan 1 0 0 -0 -0 -0 0 -0 -0 0 0 0 -0 0 0 0 -0 -0 0 0 0 0 0 -0 0 0 -0 0 0 0 0 0 0 -0 0 0 -0 -0 0 0 -0 nan
nan nan nan nan nan nan nan nan nan nan nan nan nan nan nan nan nan nan nan nan nan nan nan nan nan nan nan nan nan nan nan nan nan nan nan nan nan nan nan nan nan nan nan
Wind_Speed
14 19 23 20 19 16 15 14 14 17 20 19 19 17 14 13 16 15 14 15 17 16 19 15 18 17 18 20 18 19 19 20 20 19 18 16 15 15 15 15 13 14 15
15 22 25 21 20 18 15 13 14 17 21 22 20 18 16 17 16 15 16 17 17 19 17 15 17 17 19 20 20 20 20 20 20 21 17 14 16 15 15 15 13 13 13
21 23 25 20 20 18 15 14 16 18 22 23 21 20 18 18 18 16 17 19 17 21 17 16 18 18 18 18 17 17 17 17 19 22 17 9 11 13 13 13 14 14 12
21 23 24 22 19 18 16 16 18 19 22 23 22 21 21 19 18 19 16 19 20 21 19 19 18 17 17 17 16 15 15 15 15 17 11 9 9 11 11 12 12 12 9
20 21 22 21 19 17 17 18 19 20 23 24 23 23 22 20 18 18 19 21 21 20 20 20 18 17 16 16 15 15 14 14 15 11 11 10 9 11 10 11 10 9 8
21 21 23 21 20 18 19 20 19 21 25 25 25 24 23 19 19 18 22 22 21 20 20 20 18 16 15 15 14 13 12 12 14 10 10 9 9 10 11 10 9 8 7
19 23 23 21 19 18 21 20 20 22 25 25 25 25 23 19 20 22 23 23 21 19 21 18 16 14 13 12 12 11 11 11 8 9 8 6 8 10 10 10 9 9 8
23 23 22 23 19 19 23 22 20 24 26 26 26 25 23 21 20 24 23 22 20 20 19 17 14 12 11 10 9 9 9 10 7 7 6 5 7 8 9 8 8 8 7
20 22 21 24 21 20 23 25 20 24 26 27 27 24 21 20 22 24 23 21 19 20 18 16 13 11 9 8 7 6 6 8 9 4 5 2 5 6 6 7 7 7 7
14 20 22 22 23 20 22 27 25 25 26 29 26 22 21 22 24 24 22 20 18 18 17 14 11 9 7 5 4 4 4 6 4 3 3 1 2 4 5 5 6 6 7
43 33 22 25 22 20 18 27 27 25 26 22 21 18 19 24 25 23 21 21 19 17 15 13 10 7 5 4 3 2 2 4 1 2 2 2 1 2 3 4 5 6 7
35 43 37 28 25 23 20 24 27 28 24 21 20 19 19 19 19 16 21 20 18 16 14 11 8 6 4 1 2 2 2 3 1 2 6 3 2 2 3 4 5 8 9
30 47 52 32 31 31 24 22 20 23 21 19 19 19 16 17 20 20 21 20 17 15 12 10 8 6 3 6 5 1 5 3 1 3 5 4 4 4 4 4 5 8 11
19 30 35 38 35 32 30 26 21 20 20 20 17 20 18 17 18 14 16 17 14 13 7 7 5 6 7 7 5 4 4 3 2 4 7 7 6 5 5 6 7 7 11
8 19 24 32 30 27 29 28 25 21 20 20 22 20 18 16 16 15 13 14 12 11 11 10 9 8 6 6 6 5 4 4 4 4 4 9 8 7 8 8 8 10 12
16 26 8 28 28 26 25 21 25 25 19 18 19 19 17 15 15 15 13 12 12 12 11 10 8 8 7 7 6 6 6 5 5 5 4 8 12 12 11 9 9 12 13
18 25 23 8 24 25 25 20 19 19 23 21 17 17 16 16 16 16 13 13 12 12 10 10 8 9 8 8 7 6 6 5 6 5 7 6 11 12 13 14 14 13 14
34 27 22 17 22 19 18 26 23 23 16 19 18 17 17 16 16 16 15 13 11 11 11 9 9 9 8 7 6 6 6 6 6 7 7 8 8 9 12 13 17 16 14
31 26 32 32 26 22 17 17 17 23 26 23 19 19 18 18 18 17 16 14 13 12 11 11 10 9 8 8 6 7 9 6 7 7 7 9 11 13 13 12 15 14 13
30 27 40 36 30 27 18 19 17 17 18 20 21 22 20 20 19 20 16 14 12 12 11 11 11 10 9 9 10 7 7 8 8 8 9 8 8 12 10 8 9 11 10
29 26 42 34 32 27 17 19 19 18 19 18 19 17 18 19 18 17 17 13 14 13 11 12 11 12 12 12 9 7 8 8 8 12 8 3 8 8 9 10 8 8 9
32 33 39 31 30 20 18 20 18 17 15 15 18 18 17 16 16 17 17 16 15 15 15 14 13 14 15 11 8 7 5 3 7 7 7 8 6 9 11 11 10 8 10
32 33 36 29 23 17 14 17 16 18 17 16 14 16 14 15 17 17 16 17 20 21 19 18 18 21 15 13 9 4 2 4 4 8 8 8 6 8 10 12 13 11 13
34 38 28 23 22 23 21 17 18 13 14 12 15 16 15 14 12 16 18 17 17 17 22 24 23 20 17 11 7 6 8 8 2 5 8 11 14 10 12 12 12 14 15
11 28 17 22 23 23 23 20 18 15 13 16 17 16 16 16 11 12 12 13 18 20 16 18 25 30 13 14 10 8 7 6 7 8 11 8 12 14 16 12 15 14 16
14 16 19 21 21 22 25 23 23 24 18 19 22 20 18 19 18 20 20 14 16 23 19 7 2 21 30 24 22 19 16 17 17 16 13 14 17 15 16 17 14 15 18
Wind_Direction
173 197 183 188 182 184 184 182 184 188 187 188 185 177 175 170 159 149 142 127 128 122 116 128 126 128 114 109 109 110 107 100 96 94 93 90 84 87 91 82 80 84 77
186 195 187 192 190 187 190 189 184 184 185 185 186 181 179 172 163 153 146 133 146 133 125 132 127 119 112 112 109 106 104 100 95 89 76 88 91 88 90 84 86 85 79
195 190 184 188 185 187 190 188 178 172 177 179 182 182 179 173 166 158 154 152 154 139 135 137 125 119 117 115 112 109 105 101 94 80 72 62 84 85 90 94 90 82 78
199 188 182 190 185 187 188 185 178 174 173 173 175 177 174 169 167 161 159 156 151 138 143 134 127 121 118 114 110 107 103 101 100 87 92 81 74 87 88 99 98 93 81
192 185 189 186 187 187 185 183 178 175 173 171 172 172 171 170 169 162 157 149 143 149 142 135 129 123 118 113 109 106 103 99 87 82 91 90 82 86 85 89 95 91 89
187 186 195 189 186 188 185 180 179 171 171 169 169 171 170 170 172 161 155 147 151 140 141 137 132 127 121 116 111 106 102 101 87 85 70 91 89 85 80 79 79 78 74
195 193 198 194 188 189 184 180 177 173 170 170 171 170 169 170 166 155 156 152 144 149 143 144 138 131 125 121 115 110 103 97 90 86 85 83 85 82 79 76 73 69 65
195 196 198 193 193 191 184 180 176 175 172 172 171 170 171 178 169 161 160 152 152 152 150 149 144 137 131 124 119 116 109 101 77 87 92 79 81 80 76 73 68 63 55
199 199 190 190 194 193 188 182 171 175 174 171 170 169 176 174 171 160 160 157 159 157 156 152 148 143 137 133 127 118 110 104 103 106 85 29 70 73 68 62 54 47 39
186 201 197 187 189 185 187 185 180 171 171 175 169 181 171 173 167 164 163 161 163 163 160 160 159 156 152 146 141 128 112 95 90 89 98 101 66 63 55 47 36 27 17
268 277 207 194 182 180 181 184 184 186 177 172 182 183 179 167 165 167 166 169 170 170 168 173 174 173 169 165 168 169 133 86 97 168 213 279 339 25 32 35 26 14 5
260 263 301 192 184 175 180 180 183 186 190 187 191 190 160 165 167 163 175 176 178 180 183 188 190 190 188 212 203 196 113 236 195 210 239 277 295 330 358 13 13 359 357
281 257 271 202 184 176 182 167 171 174 178 178 177 171 167 161 176 184 179 180 183 185 194 199 205 207 183 197 219 214 220 217 216 245 270 297 298 309 326 338 354 348 333
240 260 276 208 184 181 172 173 174 167 169 173 177 166 173 174 171 172 181 180 183 189 186 197 215 217 218 216 214 209 240 223 237 262 279 301 300 302 314 321 325 330 333
290 255 214 221 175 176 178 175 171 170 169 168 171 176 174 176 171 175 177 181 182 190 200 208 208 223 223 222 225 224 231 251 259 262 270 300 306 305 306 307 318 321 308
193 200 221 199 165 173 185 178 176 167 170 169 170 173 175 176 174 176 178 184 194 206 206 209 213 211 214 220 225 234 234 241 246 265 272 294 305 301 292 292 296 294 299
198 199 216 174 173 182 185 178 176 171 179 175 173 178 175 183 183 183 183 193 207 219 217 220 211 207 211 219 222 234 247 250 252 258 280 274 290 304 314 306 296 286 300
186 211 222 200 190 177 191 190 183 182 182 186 182 186 186 193 198 200 204 209 220 223 222 214 212 220 219 223 224 239 252 255 267 273 276 280 283 280 287 300 294 290 290
202 200 177 180 187 188 188 183 192 189 188 188 188 192 191 198 200 202 209 217 221 223 225 218 217 215 223 225 224 237 242 252 265 272 281 280 289 282 281 284 287 297 283
182 171 173 180 182 191 192 186 181 189 192 197 198 200 199 204 210 209 211 213 222 225 214 220 222 220 209 229 229 241 248 251 259 275 271 278 283 298 302 298 299 299 292
188 200 183 185 188 193 197 197 187 181 183 194 201 200 208 205 209 214 216 221 232 223 229 222 220 217 214 214 237 245 251 260 261 253 273 267 290 304 297 300 301 262 283
179 171 185 194 180 214 217 208 201 186 193 196 193 194 200 207 216 224 224 221 226 230 227 229 217 222 216 208 208 217 268 236 243 287 276 277 290 295 291 303 302 272 259
183 180 165 179 192 203 207 198 199 203 197 194 191 197 204 210 220 227 239 246 255 254 242 221 219 222 211 209 210 187 241 235 284 277 264 299 286 288 288 291 296 284 277
183 178 181 186 204 202 209 209 208 216 213 208 209 208 206 203 213 229 242 251 260 263 252 241 232 221 220 214 222 225 227 241 250 284 273 299 304 283 278 289 284 282 280
164 194 175 195 215 224 230 233 232 228 229 227 230 237 231 229 235 251 261 269 263 263 258 252 256 229 215 226 211 245 270 262 283 261 285 280 290 300 290 277 267 271 272
144 156 183 213 228 233 234 230 244 240 237 238 245 248 250 239 242 255 248 281 296 259 243 199 211 243 246 238 244 239 265 257 280 287 282 275 268 275 272 285 273 267 268
Height
1490 1489 1492 1494 1497 1499 1502 1504 1506 1508 1510 1513 1515 1517 1519 1521 1523 1525 1526 1527 1529 1530 1532 1533 1534 1534 1534 1535 1536 1536 1536 1537 1537 1538 1538 1539 1539 1539 1538 1539 1540 1539 1539
1488 1489 1491 1494 1497 1499 1502 1503 1505 1507 1509 1512 1515 1518 1520 1522 1524 1526 1528 1529 1530 1532 1533 1534 1536 1536 1536 1537 1538 1539 1539 1540 1540 1540 1541 1542 1541 1541 1541 1541 1541 1541 1541
1487 1489 1491 1494 1497 1499 1501 1503 1504 1507 1509 1511 1515 1518 1521 1523 1525 1527 1528 1531 1532 1534 1535 1536 1537 1538 1539 1539 1540 1541 1541 1542 1542 1543 1544 1545 1543 1543 1543 1543 1543 1544 1543
1488 1491 1491 1493 1496 1499 1500 1502 1504 1506 1509 1511 1514 1518 1521 1524 1525 1527 1529 1531 1533 1535 1536 1537 1538 1539 1540 1541 1542 1543 1544 1545 1545 1546 1548 1548 1545 1545 1545 1545 1545 1545 1545
1489 1493 1493 1494 1496 1498 1500 1502 1504 1506 1509 1511 1514 1517 1521 1523 1526 1528 1530 1531 1534 1535 1536 1538 1540 1541 1542 1543 1544 1545 1546 1547 1547 1548 1549 1548 1547 1547 1547 1546 1546 1547 1546
1489 1494 1494 1495 1497 1498 1500 1502 1505 1507 1509 1512 1515 1518 1521 1524 1526 1529 1531 1533 1534 1536 1538 1540 1541 1543 1544 1545 1546 1547 1547 1548 1548 1550 1550 1549 1549 1549 1548 1548 1548 1548 1547
1490 1492 1495 1497 1498 1499 1500 1503 1505 1507 1510 1513 1516 1518 1521 1524 1527 1529 1532 1534 1536 1538 1539 1541 1543 1545 1546 1547 1548 1548 1549 1549 1551 1552 1552 1551 1550 1550 1550 1550 1549 1549 1548
1490 1491 1493 1497 1499 1500 1501 1505 1506 1508 1510 1513 1516 1519 1521 1523 1526 1529 1532 1535 1538 1539 1541 1543 1544 1546 1547 1548 1549 1550 1550 1551 1554 1553 1553 1552 1552 1551 1551 1551 1551 1550 1550
1490 1493 1493 1496 1499 1501 1502 1505 1507 1508 1511 1513 1517 1520 1522 1524 1526 1530 1533 1536 1539 1540 1542 1544 1545 1547 1548 1549 1550 1551 1551 1552 1554 1554 1555 1553 1553 1553 1553 1552 1552 1552 1551
1480 1494 1494 1496 1498 1500 1502 1505 1508 1510 1512 1515 1516 1519 1521 1523 1527 1530 1533 1536 1539 1541 1543 1545 1546 1547 1548 1549 1551 1552 1552 1553 1555 1554 1555 1554 1554 1553 1553 1553 1553 1553 1553
1477 1489 1498 1496 1498 1501 1502 1504 1507 1509 1512 1514 1517 1519 1521 1524 1527 1531 1534 1536 1539 1542 1544 1545 1546 1548 1549 1550 1551 1552 1553 1554 1556 1556 1556 1554 1554 1554 1554 1554 1554 1553 1553
1466 1475 1480 1492 1496 1498 1502 1502 1505 1508 1511 1514 1517 1520 1524 1526 1529 1533 1533 1536 1539 1541 1543 1545 1547 1548 1549 1550 1551 1552 1553 1554 1555 1555 1555 1554 1554 1554 1554 1554 1554 1554 1553
1459 1474 1481 1487 1490 1492 1498 1502 1505 1506 1511 1515 1517 1522 1527 1529 1530 1532 1533 1536 1539 1542 1544 1545 1546 1547 1549 1551 1552 1553 1554 1554 1556 1555 1554 1554 1554 1553 1554 1554 1554 1553 1552
1472 1474 1478 1474 1483 1484 1493 1500 1504 1507 1512 1514 1517 1522 1526 1529 1530 1533 1534 1536 1538 1542 1544 1545 1547 1548 1548 1549 1551 1552 1552 1553 1554 1555 1554 1553 1553 1553 1553 1553 1553 1553 1553
1456 1465 1469 1467 1470 1480 1487 1496 1502 1506 1510 1513 1517 1522 1524 1527 1530 1533 1536 1536 1539 1541 1544 1544 1546 1547 1547 1549 1549 1550 1551 1553 1554 1554 1553 1553 1553 1552 1552 1552 1552 1552 1551
1458 1462 1466 1472 1474 1483 1488 1494 1499 1504 1509 1511 1515 1519 1523 1526 1529 1531 1534 1536 1538 1540 1542 1543 1544 1546 1547 1548 1549 1551 1552 1552 1552 1553 1553 1552 1550 1551 1550 1550 1550 1550 1549
1452 1460 1467 1466 1478 1485 1489 1495 1498 1502 1505 1509 1513 1518 1521 1524 1528 1530 1533 1534 1536 1538 1541 1542 1544 1545 1546 1548 1548 1550 1550 1551 1552 1552 1552 1552 1550 1548 1548 1548 1547 1547 1548
1453 1459 1471 1478 1482 1483 1492 1495 1497 1500 1504 1508 1511 1516 1519 1523 1526 1529 1531 1533 1535 1537 1538 1540 1542 1543 1544 1546 1547 1549 1549 1550 1550 1550 1551 1549 1550 1548 1546 1544 1543 1544 1544
1457 1454 1462 1473 1482 1485 1490 1494 1495 1497 1500 1506 1509 1513 1518 1521 1525 1527 1529 1531 1532 1534 1536 1539 1541 1542 1543 1545 1545 1547 1547 1548 1548 1548 1548 1548 1546 1545 1543 1542 1540 1539 1539
1455 1460 1460 1469 1476 1484 1489 1491 1492 1495 1500 1503 1506 1510 1515 1518 1522 1524 1527 1529 1532 1532 1533 1535 1539 1539 1541 1543 1543 1544 1545 1545 1546 1545 1544 1543 1543 1541 1539 1538 1538 1535 1536
1453 1459 1464 1471 1478 1481 1485 1488 1489 1493 1495 1500 1504 1508 1512 1516 1519 1522 1524 1527 1530 1531 1532 1533 1535 1537 1537 1539 1542 1542 1543 1542 1543 1541 1540 1540 1540 1539 1538 1537 1536 1535 1533
1453 1460 1466 1471 1476 1480 1484 1486 1489 1492 1496 1500 1503 1506 1510 1513 1515 1519 1521 1523 1527 1528 1529 1532 1532 1535 1535 1537 1539 1539 1540 1541 1539 1538 1537 1538 1537 1537 1537 1536 1534 1533 1531
1452 1460 1464 1471 1477 1479 1483 1487 1490 1493 1496 1499 1501 1505 1507 1509 1512 1516 1518 1520 1523 1525 1527 1527 1528 1531 1532 1533 1535 1537 1537 1538 1537 1537 1536 1534 1535 1536 1534 1534 1532 1531 1531
1452 1458 1464 1467 1474 1480 1483 1487 1490 1492 1495 1496 1500 1503 1504 1507 1509 1513 1515 1516 1519 1520 1522 1521 1523 1528 1530 1530 1532 1533 1534 1535 1535 1536 1534 1531 1531 1532 1531 1529 1530 1529 1529
1450 1457 1463 1470 1475 1476 1480 1485 1488 1492 1495 1495 1499 1502 1503 1504 1506 1509 1510 1512 1513 1516 1515 1516 1517 1522 1523 1526 1528 1528 1531 1532 1532 1533 1531 1531 1528 1528 1528 1525 1526 1525 1524
1457 1461 1465 1468 1472 1476 1478 1481 1483 1486 1488 1493 1495 1496 1499 1501 1502 1502 1505 1505 1506 1510 1510 1510 1518 1518 1519 1524 1523 1527 1526 1526 1525 1526 1526 1527 1528 1526 1524 1522 1523 1522 1521